Weather History for Racine, WI

Change the Weather History Date:

Monday, May 12, 2014

  Actual Average Record
Temperature  
Mean Temperature 66 °F -  
Max Temperature 81 °F 61 °F 83 °F (1956)
Min Temperature 51 °F 44 °F 32 °F (1971)
Cooling Degree Days 1    
Growing Degree Days 16 (Base 50)    
Moisture  
Dew Point 61 °F    
Average Humidity 87    
Maximum Humidity 97    
Minimum Humidity 65    
Precipitation  
Precipitation 1.93 in - - ()
Sea Level Pressure  
Sea Level Pressure 29.87 in    
Wind  
Wind Speed 9 mph (South)    
Max Wind Speed 18 mph    
Max Gust Speed 38 mph    
Visibility 6 miles    
Events Rain , Thunderstorm    
Averages and records for this station are not official NWS values.
T = Trace of Precipitation, MM = Missing Value Source: NWS Daily Summary

Daily Weather History Graph

Daily Weather History Graph

Search for Another Location

Airport:

Trip Planner

Search our weather history database for the weather conditions in past years. The results will help you decide how hot, cold, wet, or windy it might be!

Date:

Astronomy

May. 12, 2014 Rise Set
Actual Time 5:31 AM CDT 8:03 PM CDT
Civil Twilight 4:59 AM CDT 8:36 PM CDT
Nautical Twilight 4:19 AM CDT 9:16 PM CDT
Astronomical Twilight 3:34 AM CDT 10:01 PM CDT
Moon 5:58 PM CDT (5/12) 4:14 AM CDT (5/12)
Length of Visible Light 15h 36m
Length of Day
14h 32m
Waxing Gibbous, 95% of the Moon is Illuminated
May 12
Waxing Gibbous
May 14
Full
May 21
Last Quarter
May 28
New
Jun 5
First Quarter

Hourly Weather History & Observations

Time (CDT) Temp. Heat Index Dew Point Humidity Pressure Visibility Wind Dir Wind Speed Gust Speed Precip Events Conditions
12:53 AM 53.1 °F - 51.1 °F 93% 29.93 in 7.0 mi SSE 6.9 mph - N/A   Partly Cloudy
1:53 AM 53.1 °F - 51.1 °F 93% 29.91 in 8.0 mi SE 8.1 mph - N/A   Partly Cloudy
2:53 AM 51.1 °F - 48.9 °F 92% 29.89 in 8.0 mi SE 6.9 mph - N/A   Mostly Cloudy
3:30 AM 53.1 °F - 52.0 °F 96% 29.88 in 9.0 mi SSE 10.4 mph - 0.00 in Thunderstorm Thunderstorm
3:43 AM 54.0 °F - 52.0 °F 93% 29.88 in 8.0 mi SSE 10.4 mph - 0.00 in Thunderstorm Mostly Cloudy
3:53 AM 55.0 °F - 53.1 °F 93% 29.88 in 7.0 mi South 11.5 mph - 0.00 in Thunderstorm Mostly Cloudy
3:58 AM 55.9 °F - 54.0 °F 93% 29.88 in 6.0 mi South 11.5 mph - N/A   Mostly Cloudy
4:28 AM 57.9 °F - 55.9 °F 93% 29.88 in 6.0 mi South 15.0 mph - N/A   Overcast
4:53 AM 57.9 °F - 55.9 °F 93% 29.86 in 5.0 mi SSE 13.8 mph - N/A   Mostly Cloudy
5:01 AM 57.0 °F - 55.0 °F 93% 29.86 in 5.0 mi South 13.8 mph - N/A   Scattered Clouds
5:17 AM 57.0 °F - 55.0 °F 93% 29.86 in 5.0 mi South 12.7 mph - N/A   Scattered Clouds
5:37 AM 55.9 °F - 55.0 °F 97% 29.86 in 5.0 mi South 13.8 mph - N/A   Mostly Cloudy
5:53 AM 55.9 °F - 55.0 °F 97% 29.86 in 4.0 mi South 8.1 mph - N/A   Mostly Cloudy
6:48 AM 57.2 °F - 55.4 °F 94% 29.87 in 5.0 mi South 6.9 mph - N/A   Overcast
6:53 AM 57.0 °F - 55.0 °F 93% 29.87 in 5.0 mi South 6.9 mph - N/A   Overcast
7:19 AM 57.9 °F - 55.9 °F 93% 29.87 in 5.0 mi South 5.8 mph - N/A   Mostly Cloudy
7:53 AM 59.0 °F - 55.9 °F 90% 29.87 in 5.0 mi SSE 8.1 mph - N/A   Mostly Cloudy
8:20 AM 60.1 °F - 57.0 °F 90% 29.87 in 4.0 mi South 5.8 mph - N/A   Scattered Clouds
9:53 AM 66.9 °F - 62.1 °F 84% 29.87 in 8.0 mi SSE 4.6 mph - N/A   Overcast
10:53 AM 78.1 °F - 68.0 °F 71% 29.86 in 10.0 mi SW 15.0 mph 24.2 mph N/A   Mostly Cloudy
11:43 AM 81.0 °F 83.8 °F 68.0 °F 65% 29.87 in 10.0 mi SSW 17.3 mph 27.6 mph N/A   Scattered Clouds
11:53 AM 80.1 °F 82.7 °F 68.0 °F 67% 29.86 in 10.0 mi WSW 10.4 mph 26.5 mph N/A   Mostly Cloudy
12:07 PM 80.1 °F 82.7 °F 68.0 °F 67% 29.86 in 10.0 mi SW 18.4 mph 26.5 mph N/A   Mostly Cloudy
12:53 PM 80.1 °F 82.7 °F 68.0 °F 67% 29.88 in 10.0 mi WSW 10.4 mph - N/A   Overcast
1:02 PM 80.1 °F 82.7 °F 68.0 °F 67% 29.88 in 10.0 mi SW 8.1 mph - N/A Thunderstorm Mostly Cloudy
1:38 PM 64.9 °F - 60.1 °F 84% 29.91 in 10.0 mi North 13.8 mph - N/A Thunderstorm Overcast
1:53 PM 63.0 °F - 59.0 °F 87% 29.89 in 9.0 mi ENE 11.5 mph - N/A   Overcast
2:22 PM 62.1 °F - 55.9 °F 80% 29.88 in 10.0 mi ESE 9.2 mph - N/A   Mostly Cloudy
2:53 PM 69.1 °F - 61.0 °F 75% 29.88 in 10.0 mi ESE 3.5 mph - N/A   Clear
3:53 PM 68.0 °F - 60.1 °F 76% 29.85 in 10.0 mi SE 9.2 mph - N/A   Clear
4:53 PM 63.0 °F - 57.0 °F 81% 29.85 in 10.0 mi SSE 5.8 mph - N/A   Clear
5:07 PM 64.0 °F - 59.0 °F 84% 29.85 in 9.0 mi SSE 5.8 mph - N/A Thunderstorm Clear
5:21 PM 64.9 °F - 59.0 °F 81% 29.86 in 8.0 mi SSE 5.8 mph - 0.00 in Rain , Thunderstorm Light Thunderstorms and Rain
5:53 PM 64.0 °F - 62.1 °F 93% 29.84 in 1.8 mi South 6.9 mph - 0.17 in Rain , Thunderstorm Light Thunderstorms and Rain
6:13 PM 66.9 °F - 64.9 °F 93% 29.84 in 1.8 mi SW 3.5 mph - 0.05 in Rain Light Rain
6:15 PM 68.0 °F - 64.9 °F 90% 29.84 in 2.0 mi WSW 5.8 mph - 0.05 in Rain , Thunderstorm Light Rain
6:30 PM 68.0 °F - 66.0 °F 93% 29.83 in 3.0 mi NNW 5.8 mph - 0.06 in Rain Light Rain
6:42 PM 66.9 °F - 64.9 °F 93% 29.82 in 2.5 mi SSW 3.5 mph - 0.06 in Rain Light Rain
6:47 PM 66.2 °F - 64.4 °F 94% 29.82 in 3.0 mi ESE 5.8 mph - 0.06 in Rain , Thunderstorm Light Rain
6:53 PM 66.9 °F - 64.9 °F 93% 29.83 in 2.5 mi Calm Calm - 0.06 in Rain , Thunderstorm Light Rain
7:09 PM 68.0 °F - 66.0 °F 93% 29.83 in 0.8 mi West 5.8 mph - 0.06 in Rain , Thunderstorm Heavy Thunderstorms and Rain
7:25 PM 70.0 °F - 66.0 °F 87% 29.84 in 1.0 mi SW 17.3 mph 26.5 mph 0.24 in Rain , Thunderstorm Heavy Thunderstorms and Rain
7:38 PM 72.0 °F - 66.9 °F 84% 29.85 in 1.0 mi SE 13.8 mph 38.0 mph 0.37 in Rain , Thunderstorm Light Thunderstorms and Rain
7:42 PM 73.0 °F - 66.0 °F 79% 29.85 in 2.0 mi SE 11.5 mph 29.9 mph 0.37 in Rain , Thunderstorm Light Thunderstorms and Rain
7:44 PM 73.9 °F - 66.9 °F 79% 29.85 in 5.0 mi SSE 11.5 mph - 0.37 in Rain , Thunderstorm Light Rain
7:53 PM 72.0 °F - 66.9 °F 84% 29.84 in 10.0 mi Calm Calm - 0.37 in Thunderstorm Thunderstorm
8:04 PM 71.1 °F - 66.0 °F 84% 29.87 in 10.0 mi East 8.1 mph - 0.01 in Thunderstorm Overcast
8:11 PM 69.1 °F - 64.9 °F 87% 29.89 in 2.5 mi NE 6.9 mph - 0.18 in Rain , Thunderstorm Heavy Thunderstorms and Rain
8:20 PM 64.0 °F - 62.1 °F 93% 29.89 in 1.0 mi NE 9.2 mph - 0.44 in Rain , Thunderstorm Heavy Thunderstorms and Rain
8:50 PM 64.4 °F - 62.6 °F 94% 29.90 in 2.5 mi East 10.4 mph - 0.95 in Rain , Thunderstorm Heavy Thunderstorms and Rain
8:53 PM 64.9 °F - 63.0 °F 93% 29.90 in 3.0 mi ESE 12.7 mph - 0.95 in Rain , Thunderstorm Light Thunderstorms and Rain
9:19 PM 66.0 °F - 64.0 °F 93% 29.92 in 2.0 mi SSE 6.9 mph - 0.20 in Rain , Thunderstorm Heavy Thunderstorms and Rain
9:29 PM 66.0 °F - 64.0 °F 93% 29.89 in 5.0 mi East 5.8 mph - 0.22 in Rain , Thunderstorm Light Thunderstorms and Rain
9:37 PM 64.9 °F - 64.0 °F 97% 29.87 in 8.0 mi NNE 6.9 mph - 0.23 in Rain , Thunderstorm Light Rain
9:51 PM 66.2 °F - 64.4 °F 94% 29.88 in 10.0 mi SW 5.8 mph - 0.23 in Rain , Thunderstorm Light Thunderstorms and Rain
10:40 PM 66.0 °F - 62.1 °F 87% 29.93 in 1.8 mi SW 15.0 mph 25.3 mph 0.19 in Rain , Thunderstorm Heavy Thunderstorms and Rain
10:53 PM 64.9 °F - 62.1 °F 90% 29.91 in 1.8 mi SW 8.1 mph - 0.35 in Rain , Thunderstorm Light Thunderstorms and Rain
10:56 PM 64.9 °F - 62.1 °F 90% 29.92 in 3.0 mi WSW 6.9 mph - 0.00 in Rain , Thunderstorm Light Thunderstorms and Rain
11:13 PM 64.0 °F - 61.0 °F 90% 29.91 in 8.0 mi South 4.6 mph - 0.02 in Rain , Thunderstorm Light Rain
11:53 PM 64.0 °F - 61.0 °F 90% 29.90 in 8.0 mi West 13.8 mph 21.9 mph 0.03 in Rain Light Rain